This is the latest recevied weather packets stored in our database for station/object W4TJP. If no packets are shown the sender has not sent any weather packets the latest 1 day(s).
| Time | Temp. | Humidity | Pressure | Rain* | Wind** | Luminosity | Snow |
|---|---|---|---|---|---|---|---|
| 1778070675 | 17.22° C | 99% | 1010.7 hPa | 0 mm | - | 19 W/m² | - |
| 1778069161 | 17.22° C | 99% | 1010 hPa | 0 mm | - | 20 W/m² | - |
| 1778068254 | 17.22° C | 99% | 1010.1 hPa | 22.86 mm | - | 14 W/m² | - |
| 1778067951 | 17.22° C | 99% | 1010 hPa | 29.97 mm | - | 10 W/m² | - |
| 1778067649 | 17.22° C | 99% | 1010.2 hPa | 10.16 mm | - | 2 W/m² | - |
| 1778066740 | 16.67° C | 99% | 1010 hPa | 4.83 mm | - | 2 W/m² | - |
| 1778066438 | 16.67° C | 99% | 1010 hPa | 3.05 mm | - | 0 W/m² | - |
| 1778065832 | 16.67° C | 99% | 1009.8 hPa | 0 mm | - | 1 W/m² | - |
| 1778065530 | 16.67° C | 99% | 1010.2 hPa | 0 mm | - | 0 W/m² | - |
| 1778064923 | 16.67° C | 99% | 1009.6 hPa | 1.78 mm | - | 0 W/m² | - |
| 1778063713 | 17.22° C | 98% | 1009.7 hPa | 6.1 mm | - | 0 W/m² | - |
| 1778063410 | 17.22° C | 98% | 1009.6 hPa | 6.1 mm | - | 0 W/m² | - |
| 1778063108 | 17.22° C | 96% | 1009.4 hPa | 4.32 mm | - | 0 W/m² | - |
| 1778061595 | 18.33° C | 89% | 1009 hPa | 0 mm | - | 0 W/m² | - |
| 1778060989 | 18.33° C | 87% | 1009.1 hPa | 0 mm | - | 0 W/m² | - |
| 1778060385 | 18.89° C | 86% | 1008.8 hPa | 0 mm | - | 0 W/m² | - |
| 1778060083 | 18.89° C | 86% | 1008.4 hPa | 0 mm | - | 0 W/m² | - |
| 1778059478 | 18.89° C | 84% | 1008.4 hPa | 0 mm | - | 0 W/m² | - |
| 1778058873 | 18.89° C | 84% | 1008.5 hPa | 0 mm | - | 0 W/m² | - |
| 1778058267 | 19.44° C | 80% | 1008.2 hPa | 0 mm | - | 0 W/m² | - |
| 1778057963 | 19.44° C | 79% | 1008.2 hPa | 0 mm | - | 0 W/m² | - |
| 1778057357 | 19.44° C | 78% | 1008.3 hPa | 0 mm | - | 0 W/m² | - |
| 1778057054 | 19.44° C | 78% | 1008 hPa | 0 mm | - | 0 W/m² | - |
| 1778056750 | 19.44° C | 78% | 1008 hPa | 0 mm | - | 0 W/m² | - |
| 1778056145 | 19.44° C | 77% | 1008.1 hPa | 0 mm | - | 0 W/m² | - |
* Rain latest hour (hover to see other rain measurements)
** Current wind speed in m/s (hover to see current wind gust speed)